Location: Nag� el Ma?a??a
(24.0667°N, 32.8833°E)
Time: 15:38:18
(UTC+00:00)

SWIFT - Pass Details

Date: 25 September 2021
Orbit: 543 x 558 km, 20.6° (Epoch: 16 October)

Event Time Altitude Azimuth Distance (km) Brightness Sun altitude
Exits shadow 03:03:06 10° 248° (WSW) 1,825 4.4 -8.8°
Reaches altitude 10° 03:03:08 10° 248° (WSW) 1,816 4.4 -8.8°
Maximum altitude 03:07:12 47° 174° (S) 733 3.0 -7.9°
Drops below altitude 10° 03:11:14 10° 100° (E) 1,808 6.6 -7.0°
Sets 03:13:34 0° 94° (E) 2,698 8.4 -6.4°
